NORTHEAST SUFFOLK  -  Winter Weather Advisory Winter Weather Advisory        NORTHERN NASSAU  -  Winter Weather Advisory Winter Weather Advisory        NORTHWEST SUFFOLK  -  Winter Weather Advisory Winter Weather Advisory        SOUTHEAST SUFFOLK  -  Winter Weather Advisory Winter Weather Advisory        SOUTHERN NASSAU  -  Winter Weather Advisory Winter Weather Advisory        SOUTHWEST SUFFOLK  -  Winter Weather Advisory Winter Weather Advisory      

Active alerts

Northern Nassau
  Details for Northern Nassau Winter Weather Advisory
Southern Nassau
  Details for Southern Nassau Winter Weather Advisory
Northwest Suffolk
  Details for Northwest Suffolk Winter Weather Advisory
Southwest Suffolk
  Details for Southwest Suffolk Winter Weather Advisory
Northeast Suffolk
  Details for Northeast Suffolk Winter Weather Advisory
Southeast Suffolk
  Details for Southeast Suffolk Winter Weather Advisory


WXM80 ListenWXM80 Stop

You find our weather info also at:

UK Metoffice

WeatherCloud

Weather Underground

Northeastern Weather Network

AWEKAS

Citizen Weather Observer Program (CWOP)

HAMweather, WeatherForYou, PWS Weather


Weather Underground History page Text

Daily Summary for March 16, 2017 Units:  Metric    English   Both
« Previous Day
Next Day »
Daily Weekly Monthly Yearly Custom
  High: Low: Average:
Temperature: 3.8 °C -3.4 °C 0.1 °C
Dew Point: -7.1 °C -9.6 °C -8.6 °C
Humidity: 68 % 40 % 53 %
Wind Speed: 21.4 km/h 3.5 km/h 12.4 km/h
Wind Gust: 40.7 km/h - -
Wind:- - West
Pressure: 1018.5 hPa 1008.7 hPa -
Precipitation: 0 mm    
Historical Graphs
 
 
Tabular Data for March 16, 2017
Time Temperature Dew Point Pressure Wind Wind Speed Wind Gust Humidity Rainfall Rate (Hourly)
00:02 -2.8 °C -8.9 °C 1008.7 hPa WNW 21.4 km/h 31.5 km/h 63 % 0 mm
00:07 -2.8 °C -8.9 °C 1009 hPa NW 12.4 km/h 31.5 km/h 63 % 0 mm
00:12 -2.8 °C -9.1 °C 1009 hPa NW 14.3 km/h 29.6 km/h 62 % 0 mm
00:17 -2.8 °C -9.1 °C 1009 hPa WNW 12.7 km/h 37 km/h 62 % 0 mm
00:22 -2.8 °C -9.1 °C 1009 hPa West 15.8 km/h 33.8 km/h 62 % 0 mm
00:27 -2.8 °C -9.1 °C 1009 hPa West 11.7 km/h 22.2 km/h 62 % 0 mm
00:32 -2.8 °C -9.1 °C 1009.4 hPa WSW 12.4 km/h 33.3 km/h 62 % 0 mm
00:37 -2.8 °C -9.3 °C 1009.4 hPa West 17.2 km/h 25.9 km/h 61 % 0 mm
00:42 -2.8 °C -9.3 °C 1009.4 hPa West 15.1 km/h 29.6 km/h 61 % 0 mm
00:47 -2.7 °C -9.2 °C 1009.4 hPa West 16.9 km/h 29 km/h 61 % 0 mm
00:52 -2.7 °C -9.4 °C 1009.4 hPa SW 19.3 km/h 32.2 km/h 60 % 0 mm
00:57 -2.7 °C -9.4 °C 1009.4 hPa West 8.9 km/h 20.4 km/h 60 % 0 mm
01:02 -2.8 °C -9.5 °C 1009.4 hPa WNW 15.4 km/h 25.9 km/h 60 % 0 mm
01:07 -2.8 °C -9.3 °C 1009.4 hPa SW 15.3 km/h 31.5 km/h 61 % 0 mm
01:12 -2.8 °C -9.3 °C 1009.4 hPa WNW 17.5 km/h 33.3 km/h 61 % 0 mm
01:17 -2.8 °C -9.3 °C 1009.4 hPa West 15.1 km/h 20.9 km/h 61 % 0 mm
01:22 -2.8 °C -9.3 °C 1009.4 hPa WSW 12.6 km/h 16.7 km/h 61 % 0 mm
01:28 -2.8 °C -9.3 °C 1009.7 hPa WSW 14 km/h 31.5 km/h 61 % 0 mm
01:33 -2.8 °C -9.1 °C 1009.7 hPa WSW 8.5 km/h 22.2 km/h 62 % 0 mm
01:38 -2.9 °C -8.9 °C 1009.7 hPa SSW 7.6 km/h 16.7 km/h 63 % 0 mm
01:43 -2.9 °C -8.8 °C 1010 hPa West 11.6 km/h 14.8 km/h 64 % 0 mm
01:53 -2.9 °C -8.8 °C 1009.7 hPa West 16.1 km/h 40.2 km/h 64 % 0 mm
01:58 -2.9 °C -9 °C 1009.7 hPa WNW 18.8 km/h 22.2 km/h 63 % 0 mm
02:03 -2.9 °C -8.8 °C 1009.7 hPa West 19.3 km/h 32.2 km/h 64 % 0 mm
02:08 -2.9 °C -8.8 °C 1009.7 hPa West 9.7 km/h 19.3 km/h 64 % 0 mm
02:13 -2.9 °C -8.6 °C 1009.7 hPa West 12.9 km/h 24.1 km/h 65 % 0 mm
02:18 -2.9 °C -8.2 °C 1009.7 hPa West 11.3 km/h 32.2 km/h 67 % 0 mm
02:23 -2.9 °C -8.2 °C 1009.7 hPa WSW 11.3 km/h 27.4 km/h 67 % 0 mm
02:28 -2.9 °C -8 °C 1010 hPa WSW 12.9 km/h 32.2 km/h 68 % 0 mm
02:33 -2.9 °C -8 °C 1010 hPa West 9.7 km/h 29 km/h 68 % 0 mm
02:38 -2.9 °C -8.2 °C 1010 hPa West 11.3 km/h 25.7 km/h 67 % 0 mm
02:43 -2.9 °C -8.2 °C 1010 hPa West 12.9 km/h 29 km/h 67 % 0 mm
02:48 -2.9 °C -8.4 °C 1010 hPa West 12.9 km/h 35.4 km/h 66 % 0 mm
02:53 -3 °C -8.4 °C 1010 hPa West 14.5 km/h 32.2 km/h 66 % 0 mm
02:58 -3 °C -8.4 °C 1010 hPa West 13.8 km/h 29.6 km/h 66 % 0 mm
03:03 -2.9 °C -8.6 °C 1010 hPa West 15.4 km/h 27.8 km/h 65 % 0 mm
03:08 -2.9 °C -8.6 °C 1010 hPa West 12.4 km/h 29.6 km/h 65 % 0 mm
03:13 -2.9 °C -8.6 °C 1010 hPa West 8.2 km/h 25.9 km/h 65 % 0 mm
03:18 -2.9 °C -8.8 °C 1010 hPa West 16.1 km/h 33.8 km/h 64 % 0 mm
03:23 -2.9 °C -8.8 °C 1010 hPa West 11.3 km/h 24.1 km/h 64 % 0 mm
03:28 -2.9 °C -9 °C 1010 hPa West 19.3 km/h 33.8 km/h 63 % 0 mm
03:33 -2.9 °C -9 °C 1010 hPa WSW 14.5 km/h 27.4 km/h 63 % 0 mm
03:38 -2.9 °C -9 °C 1010 hPa WSW 12.9 km/h 24.1 km/h 63 % 0 mm
03:43 -2.9 °C -9.2 °C 1010 hPa West 12.9 km/h 40.2 km/h 62 % 0 mm
03:48 -2.9 °C -9 °C 1010 hPa West 12.9 km/h 27.4 km/h 63 % 0 mm
03:53 -3 °C -9.3 °C 1010 hPa West 19.3 km/h 32.2 km/h 62 % 0 mm
03:58 -3 °C -9.3 °C 1010 hPa WSW 18.2 km/h 35.2 km/h 62 % 0 mm
04:03 -3 °C -9.3 °C 1010 hPa West 19.6 km/h 29.6 km/h 62 % 0 mm
04:08 -3 °C -9.1 °C 1010 hPa SW 15.3 km/h 33.8 km/h 63 % 0 mm
04:13 -3 °C -9.3 °C 1010 hPa West 17.7 km/h 20.9 km/h 62 % 0 mm
04:18 -3 °C -9.3 °C 1010 hPa SW 15.8 km/h 27.4 km/h 62 % 0 mm
04:23 -3 °C -9.3 °C 1010 hPa West 3.5 km/h 18.5 km/h 62 % 0 mm
04:28 -3 °C -9.1 °C 1010 hPa SW 11.9 km/h 30.6 km/h 63 % 0 mm
04:33 -3 °C -9.3 °C 1010.4 hPa SW 17.1 km/h 27.4 km/h 62 % 0 mm
04:38 -3 °C -9.3 °C 1010 hPa West 12.1 km/h 24.1 km/h 62 % 0 mm
04:43 -3 °C -9.3 °C 1010.4 hPa WSW 13.8 km/h 20.9 km/h 62 % 0 mm
04:48 -3.1 °C -9.5 °C 1010 hPa WSW 12.2 km/h 20.9 km/h 61 % 0 mm
04:53 -3.1 °C -9.5 °C 1010 hPa West 8.9 km/h 20.9 km/h 61 % 0 mm
04:58 -3.1 °C -9.3 °C 1010 hPa WSW 14.5 km/h 20.4 km/h 62 % 0 mm
05:03 -3.1 °C -9.4 °C 1010.4 hPa SW 20.1 km/h 27.4 km/h 62 % 0 mm
05:08 -3.1 °C -9.4 °C 1010.4 hPa West 13.5 km/h 22.2 km/h 62 % 0 mm
05:13 -3.1 °C -9.2 °C 1010.7 hPa WNW 10.3 km/h 25.9 km/h 63 % 0 mm
05:18 -3.2 °C -9.4 °C 1010.7 hPa SSW 12.4 km/h 25.9 km/h 62 % 0 mm
05:23 -3.2 °C -9.2 °C 1010.7 hPa WNW 13 km/h 25.9 km/h 63 % 0 mm
05:28 -3.2 °C -9.5 °C 1010.7 hPa West 15.6 km/h 25.9 km/h 62 % 0 mm
05:33 -3.3 °C -9.6 °C 1010.7 hPa North 14.3 km/h 33.3 km/h 62 % 0 mm
05:38 -3.3 °C -9.3 °C 1010.7 hPa West 16.1 km/h 27.8 km/h 63 % 0 mm
05:43 -3.3 °C -9.6 °C 1010.7 hPa SW 17.4 km/h 31.5 km/h 62 % 0 mm
05:48 -3.3 °C -9.3 °C 1010.7 hPa WSW 11.1 km/h 29.6 km/h 63 % 0 mm
05:53 -3.3 °C -9.3 °C 1011.1 hPa West 13.8 km/h 18.5 km/h 63 % 0 mm
05:58 -3.3 °C -9.6 °C 1010.7 hPa NW 13.8 km/h 29.6 km/h 62 % 0 mm
06:03 -3.3 °C -9.6 °C 1011.1 hPa WSW 8.2 km/h 18.5 km/h 62 % 0 mm
06:09 -3.3 °C -9.4 °C 1011.1 hPa West 13.8 km/h 29.6 km/h 63 % 0 mm
06:14 -3.3 °C -9.4 °C 1011.1 hPa WNW 16.3 km/h 33.3 km/h 63 % 0 mm
06:19 -3.3 °C -9.4 °C 1011.1 hPa SW 12.2 km/h 18.5 km/h 63 % 0 mm
06:24 -3.3 °C -9.4 °C 1011.1 hPa SW 11.4 km/h 20.4 km/h 63 % 0 mm
06:29 -3.3 °C -9.6 °C 1011.1 hPa SW 8.4 km/h 20.4 km/h 62 % 0 mm
06:34 -3.3 °C -9.4 °C 1011.4 hPa WSW 14.3 km/h 22.2 km/h 63 % 0 mm
06:39 -3.3 °C -9.6 °C 1011.4 hPa SSW 9.7 km/h 18.5 km/h 62 % 0 mm
06:44 -3.4 °C -9.6 °C 1011.4 hPa West 13 km/h 22.2 km/h 62 % 0 mm
06:49 -3.4 °C -9.4 °C 1011.7 hPa WNW 13.5 km/h 31.5 km/h 63 % 0 mm
06:54 -3.3 °C -9.4 °C 1011.7 hPa West 17.1 km/h 27.8 km/h 63 % 0 mm
06:59 -3.3 °C -9.6 °C 1011.7 hPa WNW 16.9 km/h 35.2 km/h 62 % 0 mm
07:04 -3.3 °C -9.4 °C 1011.7 hPa WSW 15.8 km/h 25.7 km/h 63 % 0 mm
07:09 -3.3 °C -9.6 °C 1011.7 hPa WSW 14.6 km/h 20.4 km/h 62 % 0 mm
07:14 -3.3 °C -9.6 °C 1011.7 hPa WSW 14.8 km/h 19.3 km/h 62 % 0 mm
07:19 -3.3 °C -9.6 °C 1011.7 hPa West 14.5 km/h 18.5 km/h 62 % 0 mm
07:24 -3.3 °C -9.6 °C 1011.7 hPa WSW 19.6 km/h 31.5 km/h 62 % 0 mm
07:29 -3.3 °C -9.6 °C 1011.7 hPa WSW 6.6 km/h 11.1 km/h 62 % 0 mm
07:34 -3.3 °C -9.6 °C 1012.1 hPa West 12.6 km/h 24.1 km/h 62 % 0 mm
07:39 -3.2 °C -9.3 °C 1012.1 hPa WSW 11.6 km/h 20.4 km/h 63 % 0 mm
07:44 -3.1 °C -9.2 °C 1012.1 hPa WNW 7.6 km/h 22.2 km/h 63 % 0 mm
07:49 -3 °C -9.1 °C 1012.1 hPa WSW 13.8 km/h 29.6 km/h 63 % 0 mm
07:54 -2.9 °C -9.2 °C 1012.1 hPa WNW 9.8 km/h 25.9 km/h 62 % 0 mm
07:59 -2.9 °C -9.2 °C 1012.1 hPa SW 11.7 km/h 18.5 km/h 62 % 0 mm
08:04 -2.8 °C -9.1 °C 1012.1 hPa West 10.5 km/h 25.9 km/h 62 % 0 mm
08:10 -2.8 °C -9.1 °C 1012.4 hPa WSW 8.5 km/h 22.2 km/h 62 % 0 mm
08:14 -2.7 °C -9.2 °C 1012.4 hPa WSW 15.8 km/h 20.9 km/h 61 % 0 mm
08:19 -2.6 °C -9.1 °C 1012.4 hPa WNW 11.4 km/h 20.4 km/h 61 % 0 mm
08:24 -2.4 °C -8.9 °C 1012.4 hPa West 12.9 km/h 24.1 km/h 61 % 0 mm
08:29 -2.3 °C -8.8 °C 1012.4 hPa SW 11.3 km/h 12.9 km/h 61 % 0 mm
08:34 -2.2 °C -8.9 °C 1012.4 hPa WNW 14 km/h 20.4 km/h 60 % 0 mm
08:39 -2.2 °C -8.9 °C 1012.4 hPa West 17.1 km/h 24.1 km/h 60 % 0 mm
08:44 -2.1 °C -8.8 °C 1012.4 hPa West 13.5 km/h 24.1 km/h 60 % 0 mm
08:49 -1.9 °C -8.7 °C 1012.4 hPa WSW 10 km/h 18.5 km/h 60 % 0 mm
08:54 -1.8 °C -8.7 °C 1012.4 hPa WSW 13.4 km/h 25.9 km/h 59 % 0 mm
08:59 -1.7 °C -8.4 °C 1012.4 hPa West 10.3 km/h 27.4 km/h 60 % 0 mm
09:04 -1.6 °C -8.6 °C 1012.8 hPa WNW 16.3 km/h 27.8 km/h 59 % 0 mm
09:09 -1.6 °C -8.6 °C 1012.4 hPa West 13.8 km/h 31.5 km/h 59 % 0 mm
09:14 -1.6 °C -8.8 °C 1012.8 hPa WSW 10.8 km/h 24.1 km/h 58 % 0 mm
09:19 -1.6 °C -8.6 °C 1012.8 hPa SW 12.6 km/h 24.1 km/h 59 % 0 mm
09:24 -1.5 °C -8.7 °C 1012.8 hPa SW 13.2 km/h 22.2 km/h 58 % 0 mm
09:29 -1.4 °C -8.6 °C 1012.8 hPa NW 14.5 km/h 27.8 km/h 58 % 0 mm
09:34 -1.3 °C -8.8 °C 1012.8 hPa West 11.6 km/h 27.8 km/h 57 % 0 mm
09:39 -1.3 °C -8.5 °C 1012.4 hPa NW 11.1 km/h 22.2 km/h 58 % 0 mm
09:44 -1.2 °C -8.7 °C 1012.4 hPa WNW 20.8 km/h 35.2 km/h 57 % 0 mm
09:49 -1.2 °C -8.4 °C 1012.8 hPa WSW 16.6 km/h 22.2 km/h 58 % 0 mm
09:54 -1.1 °C -8.6 °C 1012.4 hPa West 15 km/h 27.8 km/h 57 % 0 mm
09:59 -1.1 °C -8.5 °C 1012.8 hPa WNW 11.3 km/h 13 km/h 57 % 0 mm
10:04 -0.9 °C -8.3 °C 1012.8 hPa WNW 12.4 km/h 18.5 km/h 57 % 0 mm
10:09 -0.7 °C -8.4 °C 1012.4 hPa NW 10.3 km/h 20.4 km/h 56 % 0 mm
10:14 -0.7 °C -8.6 °C 1012.4 hPa WSW 13.8 km/h 24.1 km/h 55 % 0 mm
10:19 -0.6 °C -8.6 °C 1012.4 hPa WNW 9.3 km/h 20.4 km/h 55 % 0 mm
10:24 -0.5 °C -8.2 °C 1012.8 hPa WNW 9.3 km/h 20.4 km/h 56 % 0 mm
10:30 -0.2 °C -8.2 °C 1012.4 hPa NNW 9.8 km/h 20.4 km/h 55 % 0 mm
10:35 -0.1 °C -8.5 °C 1012.8 hPa West 17.5 km/h 31.5 km/h 53 % 0 mm
10:40 0.1 °C -8.4 °C 1012.4 hPa NW 12.2 km/h 27.8 km/h 53 % 0 mm
10:45 0.2 °C -8.2 °C 1012.4 hPa WNW 12.7 km/h 24.1 km/h 53 % 0 mm
10:50 0.2 °C -8.2 °C 1012.4 hPa WNW 11.9 km/h 25.9 km/h 53 % 0 mm
10:51 0.2 °C -8.2 °C 1012.4 hPa WSW 13 km/h 24.1 km/h 53 % 0 mm
10:56 0.3 °C -8.4 °C 1012.4 hPa NW 15.6 km/h 27.4 km/h 52 % 0 mm
11:01 0.3 °C -8.4 °C 1012.8 hPa NW 11.9 km/h 18.5 km/h 52 % 0 mm
11:06 0.4 °C -8.3 °C 1012.8 hPa NNW 12.2 km/h 20.4 km/h 52 % 0 mm
11:11 0.6 °C -8.2 °C 1012.8 hPa WNW 11.3 km/h 24.1 km/h 52 % 0 mm
11:16 0.7 °C -8.3 °C 1012.8 hPa WNW 11.1 km/h 25.9 km/h 51 % 0 mm
11:21 0.7 °C -8.6 °C 1012.8 hPa NW 13.2 km/h 25.7 km/h 50 % 0 mm
11:26 0.9 °C -7.9 °C 1012.8 hPa WNW 10.6 km/h 20.4 km/h 52 % 0 mm
11:31 1.1 °C -7.9 °C 1012.8 hPa West 9.8 km/h 22.2 km/h 51 % 0 mm
11:36 1.4 °C -8.2 °C 1012.8 hPa WNW 12.1 km/h 18.5 km/h 49 % 0 mm
11:41 1.4 °C -8.7 °C 1012.8 hPa WSW 15.6 km/h 19.3 km/h 47 % 0 mm
11:46 1.6 °C -8 °C 1012.8 hPa West 7.9 km/h 14.8 km/h 49 % 0 mm
11:51 1.7 °C -7.9 °C 1012.8 hPa WNW 7.4 km/h 22.2 km/h 49 % 0 mm
11:56 1.9 °C -8 °C 1012.4 hPa WNW 10.6 km/h 18.5 km/h 48 % 0 mm
12:02 1.9 °C -8.2 °C 1012.8 hPa West 10.8 km/h 22.2 km/h 47 % 0 mm
12:07 2 °C -8.2 °C 1012.8 hPa West 13 km/h 20.4 km/h 47 % 0 mm
12:12 2.1 °C -8.4 °C 1012.8 hPa NW 15.4 km/h 16.7 km/h 46 % 0 mm
12:17 2.1 °C -8.7 °C 1012.8 hPa West 14.3 km/h 24.1 km/h 45 % 0 mm
12:22 2.2 °C -8.2 °C 1012.8 hPa WNW 7.6 km/h 18.5 km/h 46 % 0 mm
12:27 2.2 °C -8.5 °C 1012.8 hPa WSW 11.1 km/h 20.4 km/h 45 % 0 mm
12:32 2.3 °C -8.4 °C 1012.8 hPa WNW 13.7 km/h 18.5 km/h 45 % 0 mm
12:37 2.4 °C -8.1 °C 1012.8 hPa WNW 11.3 km/h 20.4 km/h 46 % 0 mm
12:42 2.5 °C -8.6 °C 1012.8 hPa West 11.7 km/h 24.1 km/h 44 % 0 mm
12:47 2.6 °C -7.9 °C 1012.8 hPa WNW 14.6 km/h 25.9 km/h 46 % 0 mm
12:52 2.6 °C -8.2 °C 1012.8 hPa WNW 9.3 km/h 20.4 km/h 45 % 0 mm
12:57 2.7 °C -8.6 °C 1012.8 hPa WSW 9.7 km/h 20.4 km/h 43 % 0 mm
13:02 2.7 °C -8.6 °C 1012.8 hPa WNW 11.3 km/h 20.4 km/h 43 % 0 mm
13:07 2.8 °C -8.6 °C 1012.8 hPa West 12.2 km/h 18.5 km/h 43 % 0 mm
13:12 2.8 °C -8.6 °C 1012.8 hPa NW 7.6 km/h 18.5 km/h 43 % 0 mm
13:17 3 °C -8.4 °C 1012.8 hPa WNW 11.3 km/h 14.8 km/h 43 % 0 mm
13:18 3 °C -8.4 °C 1012.4 hPa West 11.9 km/h 18.5 km/h 43 % 0 mm
13:23 3.1 °C -8.9 °C 1012.4 hPa WNW 13.7 km/h 24.1 km/h 41 % 0 mm
13:28 3.1 °C -8.3 °C 1012.4 hPa NW 13 km/h 20.4 km/h 43 % 0 mm
13:33 3.1 °C -8.9 °C 1012.4 hPa West 8.4 km/h 14.8 km/h 41 % 0 mm
13:38 3 °C -9 °C 1012.4 hPa WSW 13.8 km/h 20.4 km/h 41 % 0 mm
13:43 2.9 °C -9.1 °C 1012.4 hPa WSW 20 km/h 33.3 km/h 41 % 0 mm
13:48 2.8 °C -9.2 °C 1012.4 hPa West 11.7 km/h 30.6 km/h 41 % 0 mm
13:53 2.8 °C -8.9 °C 1012.1 hPa NW 12.2 km/h 24.1 km/h 42 % 0 mm
13:58 2.9 °C -9.4 °C 1012.1 hPa SW 14 km/h 31.5 km/h 40 % 0 mm
14:03 3 °C -8.4 °C 1012.1 hPa WNW 10.9 km/h 20.4 km/h 43 % 0 mm
14:08 3.1 °C -8.6 °C 1012.1 hPa West 13.7 km/h 20.9 km/h 42 % 0 mm
14:13 3.1 °C -8.6 °C 1012.1 hPa WNW 8.9 km/h 16.1 km/h 42 % 0 mm
14:18 3.2 °C -8.8 °C 1012.1 hPa NW 10.8 km/h 20.4 km/h 41 % 0 mm
14:23 3.2 °C -8.8 °C 1012.1 hPa WNW 10.9 km/h 20.4 km/h 41 % 0 mm
14:28 3.2 °C -8.6 °C 1011.7 hPa WSW 9.5 km/h 16.7 km/h 42 % 0 mm
14:33 3.2 °C -8.6 °C 1011.7 hPa SW 16.3 km/h 22.2 km/h 42 % 0 mm
14:38 3.3 °C -8.1 °C 1012.1 hPa West 9.7 km/h 22.2 km/h 43 % 0 mm
14:43 3.4 °C -8.3 °C 1011.7 hPa West 8.9 km/h 22.2 km/h 42 % 0 mm
14:48 3.6 °C -8.2 °C 1012.1 hPa NW 13.2 km/h 22.2 km/h 42 % 0 mm
14:54 3.6 °C -8.5 °C 1012.1 hPa West 13.8 km/h 27.8 km/h 41 % 0 mm
14:59 3.6 °C -7.9 °C 1011.7 hPa West 11.1 km/h 29.6 km/h 43 % 0 mm
15:04 3.6 °C -7.8 °C 1012.1 hPa West 11.1 km/h 20.4 km/h 43 % 0 mm
15:09 3.7 °C -7.8 °C 1012.1 hPa WSW 5.3 km/h 18.5 km/h 43 % 0 mm
15:14 3.7 °C -8.1 °C 1012.1 hPa WNW 11.4 km/h 25.9 km/h 42 % 0 mm
15:19 3.7 °C -8.1 °C 1012.1 hPa WNW 8.7 km/h 20.4 km/h 42 % 0 mm
15:24 3.7 °C -8.4 °C 1011.7 hPa West 11.7 km/h 20.4 km/h 41 % 0 mm
15:28 3.6 °C -8.4 °C 1011.7 hPa WNW 15.6 km/h 29.6 km/h 41 % 0 mm
15:33 3.6 °C -8.1 °C 1012.1 hPa WNW 8.9 km/h 25.9 km/h 42 % 0 mm
15:38 3.7 °C -8.1 °C 1011.7 hPa WNW 9.7 km/h 22.5 km/h 42 % 0 mm
15:43 3.7 °C -8.1 °C 1011.7 hPa West 11.3 km/h 25.7 km/h 42 % 0 mm
15:48 3.7 °C -8.1 °C 1011.7 hPa West 12.9 km/h 20.9 km/h 42 % 0 mm
15:53 3.7 °C -8.1 °C 1011.7 hPa West 12.9 km/h 22.5 km/h 42 % 0 mm
15:58 3.8 °C -7.7 °C 1011.7 hPa West 13.2 km/h 20.9 km/h 43 % 0 mm
16:03 3.8 °C -8.3 °C 1011.7 hPa WNW 12.9 km/h 22.5 km/h 41 % 0 mm
16:08 3.8 °C -8.3 °C 1011.4 hPa West 9.7 km/h 22.5 km/h 41 % 0 mm
16:13 3.8 °C -8.2 °C 1011.7 hPa WNW 14.5 km/h 25.7 km/h 41 % 0 mm
16:18 3.8 °C -8 °C 1011.7 hPa WNW 11.3 km/h 32.2 km/h 42 % 0 mm
16:23 3.7 °C -8.3 °C 1011.4 hPa West 14.5 km/h 32.2 km/h 41 % 0 mm
16:28 3.7 °C -8.1 °C 1011.7 hPa WNW 9.7 km/h 25.7 km/h 42 % 0 mm
16:33 3.7 °C -8.1 °C 1011.4 hPa WNW 12.9 km/h 24.1 km/h 42 % 0 mm
16:38 3.7 °C -8.4 °C 1011.7 hPa WNW 9.7 km/h 20.9 km/h 41 % 0 mm
16:43 3.6 °C -8.4 °C 1011.7 hPa WNW 8 km/h 20.9 km/h 41 % 0 mm
16:48 3.6 °C -8.8 °C 1011.7 hPa WNW 16.1 km/h 29 km/h 40 % 0 mm
16:53 3.5 °C -8.6 °C 1011.7 hPa WNW 9.7 km/h 32.2 km/h 41 % 0 mm
16:58 3.4 °C -8 °C 1011.7 hPa NW 14.5 km/h 24.1 km/h 43 % 0 mm
17:03 3.4 °C -8.3 °C 1011.7 hPa NW 18.3 km/h 25.9 km/h 42 % 0 mm
17:08 3.4 °C -8.3 °C 1012.1 hPa WNW 10.1 km/h 20.4 km/h 42 % 0 mm
17:13 3.4 °C -8.3 °C 1012.1 hPa WNW 15.3 km/h 29 km/h 42 % 0 mm
17:18 3.4 °C -8.3 °C 1012.1 hPa NW 13.2 km/h 22.2 km/h 42 % 0 mm
17:23 3.4 °C -8.7 °C 1012.1 hPa West 15.6 km/h 27.8 km/h 41 % 0 mm
17:28 3.4 °C -8.3 °C 1012.1 hPa West 14.5 km/h 25.9 km/h 42 % 0 mm
17:33 3.4 °C -8.3 °C 1012.1 hPa WNW 7.4 km/h 24.1 km/h 42 % 0 mm
17:38 3.4 °C -8.3 °C 1012.1 hPa West 11.1 km/h 13 km/h 42 % 0 mm
17:43 3.4 °C -8.6 °C 1012.1 hPa WNW 7.9 km/h 20.4 km/h 41 % 0 mm
17:48 3.4 °C -8.3 °C 1012.1 hPa WNW 11.6 km/h 22.2 km/h 42 % 0 mm
17:54 3.4 °C -8.3 °C 1012.1 hPa NW 13.4 km/h 24.1 km/h 42 % 0 mm
17:59 3.3 °C -8.1 °C 1012.1 hPa WNW 12.7 km/h 25.9 km/h 43 % 0 mm
18:04 3.3 °C -7.8 °C 1012.4 hPa NNW 11.3 km/h 20.4 km/h 44 % 0 mm
18:09 3.3 °C -8.4 °C 1012.4 hPa WNW 8.5 km/h 14.8 km/h 42 % 0 mm
18:14 3.2 °C -7.9 °C 1012.4 hPa WSW 11.3 km/h 18.5 km/h 44 % 0 mm
18:19 3.2 °C -7.9 °C 1012.8 hPa NW 8.4 km/h 17.7 km/h 44 % 0 mm
18:24 3.1 °C -8 °C 1012.8 hPa WNW 15.3 km/h 24.1 km/h 44 % 0 mm
18:29 3.1 °C -8.1 °C 1012.8 hPa WNW 6.6 km/h 16.7 km/h 44 % 0 mm
18:34 3.1 °C -7.7 °C 1012.8 hPa West 9 km/h 14.8 km/h 45 % 0 mm
18:39 3 °C -7.8 °C 1013.1 hPa West 11.6 km/h 18.5 km/h 45 % 0 mm
18:44 2.9 °C -7.8 °C 1013.1 hPa NW 6 km/h 20.4 km/h 45 % 0 mm
18:49 2.9 °C -7.6 °C 1013.1 hPa NNW 9.3 km/h 18.5 km/h 46 % 0 mm
18:54 2.8 °C -7.7 °C 1013.1 hPa WNW 14.3 km/h 20.4 km/h 46 % 0 mm
18:59 2.8 °C -8.3 °C 1013.1 hPa WNW 11.4 km/h 18.5 km/h 44 % 0 mm
19:04 2.7 °C -7.8 °C 1013.4 hPa WNW 12.2 km/h 18.5 km/h 46 % 0 mm
19:09 2.7 °C -8.1 °C 1013.4 hPa WNW 10.3 km/h 14.8 km/h 45 % 0 mm
19:14 2.6 °C -8.2 °C 1013.4 hPa NW 8.7 km/h 14.8 km/h 45 % 0 mm
19:20 2.6 °C -7.9 °C 1013.4 hPa WNW 9.7 km/h 22.2 km/h 46 % 0 mm
19:25 2.5 °C -7.9 °C 1013.8 hPa NW 10.8 km/h 13 km/h 46 % 0 mm
19:30 2.5 °C -8.3 °C 1013.8 hPa WNW 8.4 km/h 13 km/h 45 % 0 mm
19:35 2.4 °C -8 °C 1013.8 hPa NW 8.9 km/h 16.1 km/h 46 % 0 mm
19:40 2.4 °C -8 °C 1014.1 hPa NW 9.7 km/h 16.7 km/h 46 % 0 mm
19:45 2.4 °C -8.6 °C 1014.1 hPa NW 7.1 km/h 25.9 km/h 44 % 0 mm
19:50 2.4 °C -8.1 °C 1014.4 hPa NW 7.4 km/h 17.7 km/h 46 % 0 mm
19:55 2.4 °C -7.3 °C 1014.4 hPa WNW 8.7 km/h 14.8 km/h 49 % 0 mm
20:00 2.3 °C -7.3 °C 1014.4 hPa WNW 9.8 km/h 16.7 km/h 49 % 0 mm
20:05 2.3 °C -7.1 °C 1014.8 hPa NW 8 km/h 18.5 km/h 50 % 0 mm
20:10 2.2 °C -7.2 °C 1014.8 hPa West 5.1 km/h 16.1 km/h 50 % 0 mm
20:15 2.2 °C -7.4 °C 1014.8 hPa WNW 9.2 km/h 13 km/h 49 % 0 mm
20:20 2.1 °C -8.1 °C 1015.1 hPa NW 6.1 km/h 9.3 km/h 47 % 0 mm
20:25 2.1 °C -7.8 °C 1015.1 hPa WNW 7.4 km/h 14.5 km/h 48 % 0 mm
20:30 2.1 °C -8.4 °C 1015.1 hPa NW 14.6 km/h 25.7 km/h 46 % 0 mm
20:35 2 °C -8.7 °C 1015.5 hPa West 14.5 km/h 29.6 km/h 45 % 0 mm
20:41 2 °C -8.4 °C 1015.5 hPa West 5.5 km/h 11.1 km/h 46 % 0 mm
20:46 1.9 °C -8.8 °C 1015.5 hPa West 9.2 km/h 24.1 km/h 45 % 0 mm
20:51 1.9 °C -8.3 °C 1015.8 hPa NW 8.7 km/h 18.5 km/h 47 % 0 mm
20:56 1.8 °C -7.8 °C 1015.8 hPa West 6 km/h 13 km/h 49 % 0 mm
21:01 1.8 °C -8.3 °C 1015.8 hPa WNW 9 km/h 16.7 km/h 47 % 0 mm
21:11 1.7 °C -8.1 °C 1016.1 hPa West 12.2 km/h 22.5 km/h 48 % 0 mm
21:16 1.7 °C -8.1 °C 1016.1 hPa NW 8.9 km/h 16.7 km/h 48 % 0 mm
21:21 1.7 °C -8.4 °C 1016.5 hPa NNW 17.5 km/h 29 km/h 47 % 0 mm
21:26 1.7 °C -8.4 °C 1016.5 hPa WNW 15.8 km/h 27.4 km/h 47 % 0 mm
21:31 1.7 °C -7.9 °C 1016.5 hPa NW 10 km/h 24.1 km/h 49 % 0 mm
21:36 1.6 °C -8.2 °C 1016.8 hPa WNW 10.6 km/h 16.7 km/h 48 % 0 mm
21:41 1.6 °C -8.8 °C 1016.8 hPa NW 12.1 km/h 27.8 km/h 46 % 0 mm
21:46 1.5 °C -8.6 °C 1016.8 hPa WNW 13.8 km/h 22.2 km/h 47 % 0 mm
21:51 1.5 °C -8.6 °C 1017.2 hPa WSW 15.3 km/h 24.1 km/h 47 % 0 mm
21:56 1.4 °C -9.2 °C 1017.2 hPa NW 17.9 km/h 29.6 km/h 45 % 0 mm
22:01 1.4 °C -8.4 °C 1017.2 hPa WNW 13.2 km/h 25.9 km/h 48 % 0 mm
22:06 1.3 °C -8.5 °C 1017.5 hPa NW 14.6 km/h 25.9 km/h 48 % 0 mm
22:11 1.3 °C -8.6 °C 1017.5 hPa West 16.7 km/h 29.6 km/h 48 % 0 mm
22:16 1.2 °C -8.6 °C 1017.5 hPa NW 13.8 km/h 24.1 km/h 48 % 0 mm
22:21 1.2 °C -8.7 °C 1017.5 hPa NNW 15.6 km/h 40.7 km/h 48 % 0 mm
22:26 1.2 °C -8.7 °C 1017.5 hPa WNW 17.9 km/h 37 km/h 48 % 0 mm
22:31 1.1 °C -7.9 °C 1017.5 hPa NNW 14 km/h 27.8 km/h 51 % 0 mm
22:36 1.1 °C -8.2 °C 1017.8 hPa WNW 17.1 km/h 24.1 km/h 50 % 0 mm
22:41 1 °C -8.3 °C 1017.8 hPa NW 18.3 km/h 27.8 km/h 50 % 0 mm
22:46 1 °C -7.8 °C 1017.8 hPa NNW 13 km/h 22.2 km/h 52 % 0 mm
22:51 0.9 °C -7.8 °C 1017.8 hPa NNW 5.6 km/h 20.4 km/h 52 % 0 mm
22:57 0.8 °C -7.9 °C 1017.8 hPa NW 10.6 km/h 20.9 km/h 52 % 0 mm
23:02 0.8 °C -8.2 °C 1017.8 hPa NW 10.6 km/h 16.7 km/h 51 % 0 mm
23:07 0.8 °C -8 °C 1018.2 hPa WNW 13.4 km/h 22.5 km/h 52 % 0 mm
23:12 0.7 °C -7.8 °C 1017.8 hPa NW 9.5 km/h 25.9 km/h 53 % 0 mm
23:17 0.7 °C -7.8 °C 1017.8 hPa West 11.6 km/h 25.9 km/h 53 % 0 mm
23:22 0.6 °C -8.1 °C 1018.2 hPa NW 14.2 km/h 24.1 km/h 52 % 0 mm
23:27 0.6 °C -8.4 °C 1018.2 hPa WNW 13.4 km/h 25.9 km/h 51 % 0 mm
23:32 0.6 °C -8.2 °C 1018.2 hPa NW 10.1 km/h 16.7 km/h 52 % 0 mm
23:37 0.6 °C -7.9 °C 1018.2 hPa WNW 4.5 km/h 9.3 km/h 53 % 0 mm
23:42 0.5 °C -7.7 °C 1018.2 hPa NW 9 km/h 16.1 km/h 54 % 0 mm
23:47 0.4 °C -7.8 °C 1018.2 hPa NW 8.4 km/h 22.2 km/h 54 % 0 mm
23:52 0.4 °C -7.6 °C 1018.2 hPa WNW 9.2 km/h 12.9 km/h 55 % 0 mm
23:57 0.4 °C -7.6 °C 1018.5 hPa NW 8.9 km/h 24.1 km/h 55 % 0 mm
Crab Meadow Weather
Compliments of Weather Underground - 3 mb

Script developed by  Jim McMurry - jmcmurry@mwt.net Adapted for the template by  Wim van der Kuil - Leuven-Template.eu

Wind Chill: Everyone has noticed that in winter it seems colder when the wind is blowing. Mothers recognize this and tell their children to wear more clothes. The question the children ask is how much more clothes. Mothers answer very precisely because Mothers know everything. For the rest of us, wind chill calculations are the basis for determining the effect of wind on body heat loss. The wind chill equivalent temperature equation is: Wind chill temperature = 35.74 + 0.6215T - 35.75V (**0.16) + 0.4275TV(**0.16) where T is the air temperature in Fahrenheit and V is the wind speed in MPH.